Weather in Bridlington

United Kingdom     54°05′08″N   0°11′38″E
temp.,
°C
wind,
m/s
gust,
m/s
humid.,
%
clouds,
%
prec.,
mm/h
press.,
hPa
HPBL,
m
8 march, mon
mon800:00+5wsw3487100 0.0 102483
03:00+3w4585100 0.0 102396
06:00+4w5883100 0.0 1022189
09:00+6w61088100 0.2 1021267
12:00+7w71188100 1.3 1020451
15:00+7w61286100 0.8 1019534
18:00+6w71386100 0.8 1019393
21:00+5w6128897 0.1 1019321
9 march, tue
tue900:00+5w578899 0.6 1019207
03:00+4w469047 0.0 1019129
06:00+4wnw338947 0.0 101978
09:00+6wsw128554 0.0 101997
12:00+8ssw237829 0.0 1019426
15:00+9s357451 0.1 1017576
18:00+8s588369 0.2 1016171
21:00+6s61186100 0.1 1015270
10 march, wed
wed1000:00+6ssw81579100 0.1 1012513
03:00+5ssw101779100 0.1 1009749
06:00+6ssw111988100 1.9 1007761
09:00+6ssw101787100 0.4 1006709
12:00+9ssw81486100 0.4 1005582
15:00+10ssw61186100 0.1 1002484
18:00+9ssw91594100 0.9 998488
21:00+10ssw111990100 0.3 994647
11 march, thu
thu1100:00+11ssw122090100 3.2 989700
03:00+9sw11207683 2.1 9871119
06:00+7sw12227755 2.2 9851250
09:00+7sw13228058 0.2 9831213
12:00+8wsw14216577 0.4 9881500
15:00+7w12197197 0.4 9901421
18:00+6wsw11187282 0.5 9931185
21:00+5wsw11196660 0.0 9971213
12 march, fri
fri1200:00+5wsw11196730 0.0 9991213
03:00+4sw1018720 0.0 9991102
06:00+4sw916791 0.0 998805
09:00+4sw10149350 0.4 997845
12:00+7w9137366 0.8 9981153
15:00+8w10156135 0.1 9991169
18:00+5wsw7147155 0.1 999923
21:00+4wsw7157791 0.0 1001637